When you browse on this site, cookies collect data to enhance your experience and personalize the content and advertising you see.
Visit our Privacy Policy to learn more. By continuing to use the site, you agree to this use of cookies and data.
EN

Hourly Weather Ryazankin

Today, 28 September, Monday

Time Temperature Precipitation Wind Pressure Humidity
00:00 +15°C° 0 mm 8 mps 762 mmHg 43%
01:00 +14°C° 0 mm 7 mps 762 mmHg 46%
02:00 +14°C° 0 mm 7 mps 762 mmHg 48%
03:00 +13°C° 0 mm 6 mps 763 mmHg 51%
04:00 +11°C° 0 mm 6 mps 763 mmHg 52%
05:00 +11°C° 0 mm 6 mps 763 mmHg 52%
06:00 +11°C° 0 mm 7 mps 763 mmHg 53%
07:00 +12°C° 0 mm 7 mps 763 mmHg 51%
08:00 +14°C° 0 mm 7 mps 764 mmHg 49%
09:00 +13°C° 0 mm 8 mps 764 mmHg 46%
10:00 +16°C° 0 mm 8 mps 764 mmHg 44%
11:00 +17°C° 0 mm 8 mps 764 mmHg 42%
12:00 +18°C° 0 mm 7 mps 764 mmHg 40%
13:00 +20°C° 0 mm 7 mps 763 mmHg 38%
14:00 +20°C° 0 mm 8 mps 763 mmHg 35%
15:00 +21°C° 0 mm 8 mps 763 mmHg 33%
16:00 +20°C° 0 mm 7 mps 763 mmHg 33%
17:00 +20°C° 0 mm 7 mps 763 mmHg 33%
18:00 +19°C° 0 mm 6 mps 763 mmHg 33%
19:00 +19°C° 0 mm 6 mps 763 mmHg 34%
20:00 +17°C° 0 mm 6 mps 764 mmHg 35%
21:00 +17°C° 0 mm 6 mps 764 mmHg 36%
22:00 +16°C° 0 mm 6 mps 764 mmHg 39%
23:00 +15°C° 0 mm 6 mps 763 mmHg 41%

Tomorrow, 29 September, Tuesday

Time Temperature Precipitation Wind Pressure Humidity
00:00 +14°C° 0 mm 6 mps 763 mmHg 44%
01:00 +13°C° 0 mm 6 mps 763 mmHg 49%
02:00 +11°C° 0 mm 6 mps 764 mmHg 53%
03:00 +11°C° 0 mm 6 mps 764 mmHg 57%
04:00 +10°C° 0 mm 6 mps 763 mmHg 61%
05:00 +10°C° 0 mm 6 mps 763 mmHg 64%
06:00 +9°C° 0 mm 6 mps 763 mmHg 68%
07:00 +11°C° 0 mm 7 mps 763 mmHg 61%
08:00 +12°C° 0 mm 7 mps 763 mmHg 55%
09:00 +15°C° 0 mm 8 mps 763 mmHg 48%
10:00 +17°C° 0 mm 8 mps 762 mmHg 42%
11:00 +18°C° 0 mm 9 mps 762 mmHg 35%
12:00 +21°C° 0 mm 9 mps 761 mmHg 29%
13:00 +22°C° 0 mm 9 mps 761 mmHg 27%
14:00 +22°C° 0 mm 9 mps 761 mmHg 26%
15:00 +23°C° 0 mm 9 mps 760 mmHg 24%
16:00 +22°C° 0 mm 8 mps 760 mmHg 26%
17:00 +21°C° 0 mm 7 mps 760 mmHg 28%
18:00 +20°C° 0 mm 6 mps 759 mmHg 30%
19:00 +19°C° 0 mm 6 mps 759 mmHg 30%
20:00 +18°C° 0 mm 7 mps 759 mmHg 31%
21:00 +17°C° 0 mm 7 mps 759 mmHg 32%
22:00 +17°C° 0 mm 7 mps 759 mmHg 37%
23:00 +16°C° 0 mm 7 mps 759 mmHg 41%

Day after tomorrow, 30 September, Wednesday

Time Temperature Precipitation Wind Pressure Humidity
00:00 +15°C° 0 mm 7 mps 758 mmHg 46%
01:00 +15°C° 0 mm 7 mps 758 mmHg 46%
02:00 +14°C° 0 mm 7 mps 758 mmHg 47%
03:00 +14°C° 0 mm 7 mps 758 mmHg 48%
04:00 +12°C° 0 mm 7 mps 758 mmHg 46%
05:00 +12°C° 0 mm 8 mps 757 mmHg 44%
06:00 +12°C° 0 mm 8 mps 757 mmHg 42%
07:00 +13°C° 0 mm 9 mps 757 mmHg 39%
08:00 +15°C° 0 mm 9 mps 757 mmHg 36%
09:00 +17°C° 0 mm 10 mps 757 mmHg 33%
10:00 +18°C° 0 mm 11 mps 757 mmHg 30%
11:00 +21°C° 0 mm 11 mps 756 mmHg 28%
12:00 +22°C° 0 mm 12 mps 756 mmHg 25%
13:00 +23°C° 0 mm 12 mps 756 mmHg 25%
14:00 +23°C° 0 mm 11 mps 755 mmHg 24%
15:00 +23°C° 0 mm 11 mps 755 mmHg 24%
16:00 +23°C° 0 mm 11 mps 755 mmHg 26%
17:00 +22°C° 0 mm 10 mps 755 mmHg 27%
18:00 +21°C° 0 mm 10 mps 755 mmHg 29%
19:00 +19°C° 0 mm 9 mps 756 mmHg 31%
20:00 +18°C° 0 mm 9 mps 756 mmHg 32%
21:00 +17°C° 0 mm 8 mps 757 mmHg 34%
22:00 +16°C° 0 mm 8 mps 757 mmHg 36%
23:00 +15°C° 0 mm 8 mps 757 mmHg 38%

1 October, Thursday

Time Temperature Precipitation Wind Pressure Humidity
00:00 +14°C° 0 mm 7 mps 757 mmHg 40%
01:00 +14°C° 0 mm 7 mps 757 mmHg 40%
02:00 +14°C° 0 mm 7 mps 757 mmHg 41%
03:00 +12°C° 0 mm 7 mps 756 mmHg 41%
04:00 +13°C° 0 mm 8 mps 757 mmHg 40%
05:00 +13°C° 0 mm 8 mps 757 mmHg 39%
06:00 +13°C° 0 mm 8 mps 757 mmHg 38%
07:00 +15°C° 0 mm 9 mps 757 mmHg 38%
08:00 +16°C° 0 mm 10 mps 757 mmHg 37%
09:00 +17°C° 0 mm 10 mps 757 mmHg 37%
10:00 +19°C° 0 mm 11 mps 757 mmHg 34%
11:00 +21°C° 0 mm 11 mps 757 mmHg 31%
12:00 +22°C° 0 mm 11 mps 757 mmHg 29%
13:00 +22°C° 0 mm 11 mps 756 mmHg 28%
14:00 +23°C° 0 mm 11 mps 756 mmHg 27%
15:00 +23°C° 0 mm 10 mps 756 mmHg 26%
16:00 +22°C° 0 mm 9 mps 756 mmHg 27%
17:00 +21°C° 0 mm 8 mps 756 mmHg 28%
18:00 +21°C° 0 mm 7 mps 756 mmHg 29%
19:00 +20°C° 0 mm 7 mps 757 mmHg 32%
20:00 +18°C° 0 mm 7 mps 757 mmHg 34%
21:00 +17°C° 0 mm 7 mps 757 mmHg 36%
22:00 +17°C° 0 mm 7 mps 757 mmHg 40%
23:00 +16°C° 0 mm 6 mps 757 mmHg 43%

2 October, Friday

Time Temperature Precipitation Wind Pressure Humidity
00:00 +15°C° 0 mm 6 mps 757 mmHg 47%
01:00 +14°C° 0 mm 6 mps 757 mmHg 48%
02:00 +14°C° 0 mm 6 mps 757 mmHg 49%
03:00 +14°C° 0 mm 6 mps 757 mmHg 51%
04:00 +13°C° 0 mm 6 mps 757 mmHg 52%
05:00 +13°C° 0 mm 6 mps 757 mmHg 54%
06:00 +13°C° 0 mm 6 mps 757 mmHg 56%
07:00 +14°C° 0 mm 7 mps 757 mmHg 51%
08:00 +16°C° 0 mm 8 mps 757 mmHg 46%
09:00 +17°C° 0 mm 9 mps 757 mmHg 41%
10:00 +19°C° 0 mm 9 mps 757 mmHg 37%
11:00 +21°C° 0 mm 10 mps 757 mmHg 33%
12:00 +22°C° 0 mm 10 mps 756 mmHg 28%
13:00 +23°C° 0 mm 10 mps 756 mmHg 28%
14:00 +23°C° 0 mm 9 mps 756 mmHg 27%
15:00 +24°C° 0 mm 9 mps 756 mmHg 26%
16:00 +23°C° 0 mm 8 mps 756 mmHg 29%
17:00 +22°C° 0 mm 7 mps 756 mmHg 31%
18:00 +21°C° 0 mm 6 mps 756 mmHg 33%
19:00 +20°C° 0 mm 7 mps 756 mmHg 35%
20:00 +20°C° 0 mm 7 mps 756 mmHg 37%
21:00 +18°C° 0 mm 7 mps 757 mmHg 39%
22:00 +18°C° 0 mm 7 mps 757 mmHg 41%
23:00 +17°C° 0 mm 6 mps 757 mmHg 43%

3 October, Saturday

Time Temperature Precipitation Wind Pressure Humidity
00:00 +16°C° 0 mm 6 mps 757 mmHg 46%
01:00 +15°C° 0 mm 6 mps 757 mmHg 47%
02:00 +15°C° 0 mm 6 mps 757 mmHg 48%
03:00 +14°C° 0 mm 5 mps 757 mmHg 49%
04:00 +14°C° 0 mm 5 mps 757 mmHg 50%
05:00 +13°C° 0 mm 5 mps 757 mmHg 52%
06:00 +13°C° 0 mm 5 mps 757 mmHg 53%
07:00 +14°C° 0 mm 6 mps 757 mmHg 49%
08:00 +15°C° 0 mm 6 mps 757 mmHg 45%
09:00 +17°C° 0 mm 7 mps 757 mmHg 40%
10:00 +18°C° 0 mm 7 mps 757 mmHg 38%
11:00 +20°C° 0 mm 7 mps 757 mmHg 35%
12:00 +22°C° 0 mm 7 mps 757 mmHg 32%
13:00 +23°C° 0 mm 7 mps 757 mmHg 30%
14:00 +23°C° 0 mm 7 mps 757 mmHg 27%
15:00 +24°C° 0 mm 7 mps 757 mmHg 25%
16:00 +23°C° 0 mm 6 mps 757 mmHg 26%
17:00 +22°C° 0 mm 5 mps 757 mmHg 28%
18:00 +20°C° 0 mm 4 mps 757 mmHg 29%
19:00 +20°C° 0 mm 5 mps 757 mmHg 31%
20:00 +19°C° 0 mm 5 mps 757 mmHg 32%
21:00 +17°C° 0 mm 5 mps 758 mmHg 33%
22:00 +17°C° 0 mm 5 mps 758 mmHg 36%
23:00 +17°C° 0 mm 5 mps 758 mmHg 38%
Show more